Location: Milevsko
(49.4500°N, 14.3670°E)
Time: 20:40:26
(UTC+02:00)

ISS - Pass Details

Date: 18 July 2018
Orbit: 402 x 408 km, 51.6° (Epoch: 17 July)

Event Time Altitude Azimuth Distance (km) Brightness Sun altitude
Exits shadow 02:22:47 - 278° (W) 1,952 -0.5 -17.6°
Reaches altitude 10° 02:23:58 10° 282° (WNW) 1,468 -1.1 -17.5°
Maximum altitude 02:27:13 56° 2° (N) 491 -3.1 -17.4°
Drops below altitude 10° 02:30:28 10° 81° (E) 1,470 -0.6 -17.2°
Sets 02:32:35 0° 86° (E) 2,331 0.4 -17.1°
